Regional Weather Roundup
Issued by NWS

Home | Current Version | Previous Version | Graphics & Text | Print | Product List | Glossary On
Versions: 1 2 3 4 5 6 7 8 9 10 11 12 13 14 15 16 17 18 19 20 21 22 23 24 25 26 27 28 29 30 31 32 33 34 35 36 37 38 39 40 41 42 43 44 45 46 47 48 49 50
000
ASUS43 KIND 132059
RWRIN

WEATHER ROUNDUP FOR INDIANA
NATIONAL WEATHER SERVICE INDIANAPOLIS IN
400 PM EST WED DEC 13 2017

NOTE: "FAIR" INDICATES FEW OR NO CLOUDS BELOW 12,000 FEET WITH NO
SIGNIFICANT WEATHER AND/OR OBSTRUCTIONS TO VISIBILITY.

* - STATION DOES NOT REPORT WEATHER SUCH AS PRECIPITATION OR FOG.

+ - STATION NOT QUALITY CONTROLLED BY THE NATIONAL WEATHER SERVICE.
    USE DATA WITH CAUTION...ESPECIALLY DEWPOINT AND RELATIVE
    HUMIDITY OBSERVATIONS.

INZ001>003-010>013-019-020-132200-
NORTHWEST INDIANA

CITY           SKY/WX    TMP DP  RH WIND       PRES   REMARKS
GARY /AIRPORT/ LGT RAIN  36  32  87 SW12G23   29.29F WCI  27
KNOX *+        CLOUDY    34  32  93 SW15G22   29.30F WCI  24
LA PORTE +     LGT SNOW  33  31  94 SW15G25   29.29S VSB 3/4 WCI  23
MICHIGAN CITY+ LGT SNOW  32  32 100 SW9       29.29S WCI  24
MONTICELLO +   CLOUDY    34  32  92 SW17G23   29.35F WCI  24
RENSSELAER +   CLOUDY    36  32  87 SW12      29.33S WCI  27
VALPARAISO     LGT SNOW  36  32  87 SW13      29.30S FOG     WCI  27

$$

LMZ046-743>745-132200-
SOUTHERN LAKE MICHIGAN

STATION/POSITION TIME  TEMP    WIND        PRES    WAVE
                       AIR SEA DIR/SP/G            HT
                 (UTC) (F)     (DEG/KT/KT) (MB)    (FT)
BURNS HARBOR     2040   34     210/ 12/ 16  992.6S
MICHIGAN CITY    2030   33     210/ 20/ 22   N/A

$$

INZ004-005-014>016-021>024-132200-
NORTH CENTRAL INDIANA

CITY           SKY/WX    TMP DP  RH WIND       PRES   REMARKS
ELKHART        LGT SNOW  30  19  64 S12G21    29.30F WCI  21
GOSHEN         LGT SNOW  30  22  72 S17       29.32F WCI  18
PERU/GRISSOM   CLOUDY    34  32  93 SW20      29.36R WCI  22
ROCHESTER +    LGT RAIN  36  34  93 SW16G26   29.34F WCI  26
SOUTH BEND     LGT SNOW  30  28  92 S10       29.30F VSB 1   WCI  21
WARSAW +       LGT SNOW  32  21  64 SW7       29.34S WCI  26

$$

INZ006>009-017-018-025>027-132200-
NORTHEAST INDIANA

CITY           SKY/WX    TMP DP  RH WIND       PRES   REMARKS
AUBURN +       CLOUDY    30  14  51 SE6       29.36F WCI  24
FORT WAYNE     CLOUDY    33  19  56 S16       29.37F WCI  23
KENDALLVILLE + CLOUDY    28  16  60 S10G17    29.33F WCI  18

$$

INZ028-029-035-036-043>045-051>053-132200-
WEST CENTRAL INDIANA

CITY           SKY/WX    TMP DP  RH WIND       PRES   REMARKS
CRAWFORDSVL +  CLOUDY    37  25  61 SW18G25   29.41F WCI  27
GREENCASTLE +  CLOUDY    41  23  48 SW10G17   29.44S
LAFAYETTE      CLOUDY    36  31  82 SW13G20   29.37F WCI  27
TERRE HAUTE    CLOUDY    44  22  41 SW15      29.47S

$$

INZ030>032-037>040-046>048-054>057-064-065-132200-
CENTRAL INDIANA

CITY           SKY/WX    TMP DP  RH WIND       PRES   REMARKS
ANDERSON       PTSUNNY   36  18  48 S17G29    29.44F WCI  25
COLUMBUS       PTSUNNY   39  52 100 SW21G29   29.48F WCI  29
FRANKFORT +    CLOUDY    38  30  72 W21G28    29.40F WCI  28
GREENWOOD *+   CLOUDY    44  24  46 SW18G35   29.45F
INDIANAPOLIS   CLOUDY    40  23  50 SW28G37   29.44F WCI  29
-EAGLE CREEK   CLOUDY    39  24  55 SW10G25   29.42S WCI  32
KOKOMO +       LGT SNOW  33  30  88 SW20      29.38F FOG     WCI  21
MT COMFORT *+  CLOUDY    37  28  70 SW25G39   29.44R WCI  26
SHELBYVILLE    CLOUDY    41  18  39 SW22G35   29.44F
ZIONSVILLE +   CLOUDY    36  25  66 SW21G28   29.41S WCI  24

$$

INZ033-034-041-042-049-050-058-059-132200-
EAST CENTRAL INDIANA

CITY           SKY/WX    TMP DP  RH WIND       PRES   REMARKS
MUNCIE         CLOUDY    37  13  37 SW14G22   29.40F WCI  28
RICHMOND +     CLOUDY    32  14  47 S17       29.45F WCI  21

$$

INZ060-061-067>069-081>083-085>088-132200-
SOUTHWEST INDIANA

CITY           SKY/WX    TMP DP  RH WIND       PRES   REMARKS
EVANSVILLE     SUNNY     50  24  36 SW24G39   29.58F
HUNTINGBURG +  MOSUNNY   48  24  39 SW23G31   29.55F

$$

INZ062-063-066-070>080-084-089>092-132200-
SOUTH CENTRAL AND SOUTHEAST INDIANA

CITY           SKY/WX    TMP DP  RH WIND       PRES   REMARKS
BLOOMINGTON    CLOUDY    43  20  39 SW21G33   29.46F
SEYMOUR +      CLOUDY    43  19  39 SW17G24   29.50F

$$




USA.gov is the U.S. government's official web portal to all federal, state and local government web resources and services.